| time (UTC) | temp C | wind direction | speed KPH | gust KPH | rain 1hr cm | rain 24hr cm | rain mn cm | humidity % | barometer mb |
| 20260905224503 | 33 | 0 | 0.0 | 0.0 | 0.00 | 0.00 | 0.00 | 64 | 1013.7 |
| 20260905223603 | 33 | 0 | 0.0 | 0.0 | 0.00 | 0.00 | 0.00 | 62 | 1013.7 |
| 20260905222703 | 34 | 0 | 0.0 | 0.0 | 0.00 | 0.00 | 0.00 | 62 | 1013.7 |
| 20260905221803 | 34 | 356 | 0.0 | 1.6 | 0.00 | 0.00 | 0.00 | 60 | 1013.6 |
| 20260905220903 | 35 | 5 | 0.0 | 3.2 | 0.00 | 0.00 | 0.00 | 58 | 1013.8 |
| 20260905220003 | 35 | 353 | 1.6 | 8.0 | 0.00 | 0.00 | 0.00 | 58 | 1013.8 |
| 20260905215403 | 35 | 349 | 1.6 | 6.4 | 0.00 | 0.00 | 0.00 | 57 | 1013.9 |
| 20260905214503 | 36 | 344 | 1.6 | 6.4 | 0.00 | 0.00 | 0.00 | 54 | 1013.8 |
| 20260905213604 | 36 | 33 | 0.0 | 6.4 | 0.00 | 0.00 | 0.00 | 54 | 1013.9 |
| 20260905212703 | 36 | 351 | 1.6 | 6.4 | 0.00 | 0.00 | 0.00 | 54 | 1014.0 |
| 20260905211803 | 36 | 8 | 0.0 | 3.2 | 0.00 | 0.00 | 0.00 | 56 | 1014.1 |
| 20260905210903 | 36 | 349 | 1.6 | 4.8 | 0.00 | 0.00 | 0.00 | 54 | 1014.2 |
| 20260905210004 | 35 | 28 | 1.6 | 11.3 | 0.00 | 0.00 | 0.00 | 56 | 1014.1 |
| 20260905205403 | 35 | 23 | 3.2 | 11.3 | 0.00 | 0.00 | 0.00 | 57 | 1014.2 |
| 20260905204503 | 36 | 39 | 1.6 | 8.0 | 0.00 | 0.00 | 0.00 | 53 | 1014.4 |
| 20260905203603 | 36 | 53 | 1.6 | 6.4 | 0.00 | 0.00 | 0.00 | 53 | 1014.5 |
| 20260905202703 | 36 | 27 | 1.6 | 6.4 | 0.00 | 0.00 | 0.00 | 54 | 1014.6 |
| 20260905201803 | 36 | 12 | 1.6 | 12.9 | 0.00 | 0.00 | 0.00 | 54 | 1014.7 |
| 20260905200903 | 36 | 39 | 0.0 | 8.0 | 0.00 | 0.00 | 0.00 | 55 | 1014.8 |
| 20260905200003 | 36 | 5 | 1.6 | 8.0 | 0.00 | 0.00 | 0.00 | 56 | 1014.9 |
| 20260905195403 | 36 | 16 | 1.6 | 8.0 | 0.00 | 0.00 | 0.00 | 54 | 1014.9 |
| 20260905194503 | 36 | 351 | 1.6 | 6.4 | 0.00 | 0.00 | 0.00 | 58 | 1015.0 |
| 20260905193603 | 36 | 262 | 3.2 | 11.3 | 0.00 | 0.00 | 0.00 | 54 | 1015.2 |
| 20260905192703 | 35 | 222 | 1.6 | 8.0 | 0.00 | 0.00 | 0.00 | 56 | 1015.3 |
| 20260905191803 | 35 | 35 | 3.2 | 6.4 | 0.00 | 0.00 | 0.00 | 55 | 1015.4 |
| 20260905190903 | 35 | 103 | 3.2 | 8.0 | 0.00 | 0.00 | 0.00 | 57 | 1015.5 |
| 20260905190003 | 35 | 2 | 1.6 | 8.0 | 0.00 | 0.00 | 0.00 | 56 | 1015.7 |
| 20260905185403 | 35 | 256 | 0.0 | 3.2 | 0.00 | 0.00 | 0.00 | 58 | 1015.8 |
| 20260905184503 | 36 | 344 | 1.6 | 4.8 | 0.00 | 0.00 | 0.00 | 57 | 1015.8 |
| 20260905183603 | 35 | 337 | 1.6 | 6.4 | 0.00 | 0.00 | 0.00 | 57 | 1015.9 |
| 20260905182704 | 35 | 32 | 1.6 | 4.8 | 0.00 | 0.00 | 0.00 | 60 | 1016.3 |
| 20260905181803 | 35 | 38 | 3.2 | 9.7 | 0.00 | 0.00 | 0.00 | 60 | 1016.4 |
| 20260905180903 | 35 | 323 | 1.6 | 4.8 | 0.00 | 0.00 | 0.00 | 60 | 1016.5 |
| 20260905180003 | 35 | 276 | 1.6 | 4.8 | 0.00 | 0.00 | 0.00 | 58 | 1016.6 |
| 20260905175404 | 35 | 90 | 1.6 | 9.7 | 0.00 | 0.00 | 0.00 | 59 | 1016.5 |
| 20260905174503 | 35 | 209 | 1.6 | 6.4 | 0.00 | 0.00 | 0.00 | 63 | 1016.6 |
| 20260905173603 | 35 | 151 | 1.6 | 6.4 | 0.00 | 0.00 | 0.00 | 61 | 1016.7 |
| 20260905172703 | 34 | 39 | 1.6 | 6.4 | 0.00 | 0.00 | 0.00 | 59 | 1016.8 |
| 20260905171803 | 34 | 25 | 1.6 | 8.0 | 0.00 | 0.00 | 0.00 | 59 | 1016.9 |
| 20260905170903 | 34 | 42 | 1.6 | 6.4 | 0.00 | 0.00 | 0.00 | 63 | 1017.1 |
| 20260905170003 | 34 | 57 | 1.6 | 8.0 | 0.00 | 0.00 | 0.00 | 63 | 1017.3 |
| 20260905165403 | 34 | 89 | 1.6 | 8.0 | 0.00 | 0.00 | 0.00 | 61 | 1017.2 |
| 20260905164503 | 34 | 154 | 3.2 | 9.7 | 0.00 | 0.00 | 0.00 | 62 | 1017.1 |
| 20260905163603 | 34 | 146 | 3.2 | 6.4 | 0.00 | 0.00 | 0.00 | 64 | 1017.3 |
| 20260905162703 | 33 | 120 | 3.2 | 11.3 | 0.00 | 0.00 | 0.00 | 64 | 1017.4 |
| 20260905161803 | 33 | 79 | 3.2 | 11.3 | 0.00 | 0.00 | 0.00 | 67 | 1017.5 |
| 20260905160903 | 33 | 87 | 1.6 | 6.4 | 0.00 | 0.00 | 0.00 | 65 | 1017.5 |
| 20260905160003 | 33 | 27 | 3.2 | 14.5 | 0.00 | 0.00 | 0.00 | 67 | 1017.6 |
| 20260905155403 | 33 | 89 | 1.6 | 14.5 | 0.00 | 0.00 | 0.00 | 66 | 1017.6 |
| 20260905154503 | 33 | 103 | 3.2 | 12.9 | 0.00 | 0.00 | 0.00 | 66 | 1017.5 |
| 20260905153603 | 32 | 61 | 1.6 | 11.3 | 0.00 | 0.00 | 0.00 | 68 | 1017.7 |
| 20260905152703 | 32 | 40 | 1.6 | 8.0 | 0.00 | 0.00 | 0.00 | 74 | 1017.7 |
| 20260905151803 | 32 | 10 | 3.2 | 12.9 | 0.00 | 0.00 | 0.00 | 71 | 1017.8 |
| 20260905150903 | 32 | 28 | 3.2 | 12.9 | 0.00 | 0.00 | 0.00 | 72 | 1017.8 |
| 20260905150003 | 32 | 45 | 4.8 | 12.9 | 0.00 | 0.00 | 0.00 | 71 | 1017.8 |
| 20260905145403 | 31 | 8 | 4.8 | 12.9 | 0.00 | 0.00 | 0.00 | 71 | 1017.7 |
| 20260905144503 | 31 | 359 | 3.2 | 6.4 | 0.00 | 0.00 | 0.00 | 69 | 1017.6 |
| 20260905143603 | 31 | 6 | 3.2 | 12.9 | 0.00 | 0.00 | 0.00 | 74 | 1017.6 |
| 20260905142703 | 31 | 9 | 4.8 | 12.9 | 0.00 | 0.00 | 0.00 | 73 | 1017.6 |
| 20260905141803 | 30 | 13 | 3.2 | 9.7 | 0.00 | 0.00 | 0.00 | 77 | 1017.6 |
| 20260905140903 | 30 | 20 | 1.6 | 6.4 | 0.00 | 0.00 | 0.00 | 78 | 1017.6 |
| 20260905140004 | 30 | 17 | 1.6 | 6.4 | 0.00 | 0.00 | 0.00 | 80 | 1017.7 |
| 20260905135403 | 29 | 0 | 0.0 | 0.0 | 0.00 | 0.00 | 0.00 | 79 | 1017.6 |
| 20260905134503 | 28 | 0 | 0.0 | 0.0 | 0.00 | 0.00 | 0.00 | 83 | 1017.6 |
| 20260905133603 | 27 | 0 | 0.0 | 0.0 | 0.00 | 0.00 | 0.00 | 88 | 1017.8 |
| 20260905132703 | 26 | 0 | 0.0 | 0.0 | 0.00 | 0.00 | 0.00 | 92 | 1017.9 |
| 20260905131803 | 25 | 0 | 0.0 | 0.0 | 0.00 | 0.00 | 0.00 | 94 | 1017.9 |
| 20260905130903 | 25 | 0 | 0.0 | 0.0 | 0.00 | 0.00 | 0.00 | 95 | 1017.9 |
| 20260905130003 | 24 | 0 | 0.0 | 0.0 | 0.00 | 0.00 | 0.00 | 96 | 1017.9 |
| 20260905125403 | 24 | 0 | 0.0 | 0.0 | 0.00 | 0.00 | 0.00 | 96 | 1018.0 |
| 20260905124503 | 23 | 0 | 0.0 | 0.0 | 0.00 | 0.00 | 0.00 | 96 | 1017.9 |
| 20260905123603 | 23 | 0 | 0.0 | 0.0 | 0.00 | 0.00 | 0.00 | 96 | 1017.9 |
| 20260905122703 | 23 | 0 | 0.0 | 0.0 | 0.00 | 0.00 | 0.00 | 96 | 1017.8 |
| 20260905121803 | 23 | 0 | 0.0 | 0.0 | 0.00 | 0.00 | 0.00 | 96 | 1017.8 |
| 20260905120903 | 23 | 0 | 0.0 | 0.0 | 0.00 | 0.00 | 0.00 | 96 | 1017.7 |
| 20260905120003 | 23 | 0 | 0.0 | 0.0 | 0.00 | 0.00 | 0.00 | 96 | 1017.7 |
| 20260905115403 | 23 | 0 | 0.0 | 0.0 | 0.00 | 0.00 | 0.00 | 96 | 1017.7 |
| 20260905114503 | 23 | 0 | 0.0 | 0.0 | 0.00 | 0.00 | 0.00 | 96 | 1017.4 |
| 20260905113603 | 23 | 0 | 0.0 | 0.0 | 0.00 | 0.00 | 0.00 | 96 | 1017.3 |
| 20260905112703 | 23 | 0 | 0.0 | 0.0 | 0.00 | 0.00 | 0.00 | 96 | 1017.1 |
| 20260905111803 | 23 | 0 | 0.0 | 0.0 | 0.00 | 0.00 | 0.00 | 96 | 1017.0 |
| 20260905110903 | 23 | 0 | 0.0 | 0.0 | 0.00 | 0.00 | 0.00 | 94 | 1016.8 |
| 20260905110003 | 23 | 0 | 0.0 | 0.0 | 0.00 | 0.00 | 0.00 | 95 | 1016.6 |
| 20260905105403 | 23 | 0 | 0.0 | 0.0 | 0.00 | 0.00 | 0.00 | 95 | 1016.7 |
| 20260905104503 | 23 | 0 | 0.0 | 0.0 | 0.00 | 0.00 | 0.00 | 95 | 1016.6 |
| 20260905103603 | 23 | 0 | 0.0 | 0.0 | 0.00 | 0.00 | 0.00 | 95 | 1016.7 |
| 20260905102703 | 23 | 0 | 0.0 | 0.0 | 0.00 | 0.00 | 0.00 | 95 | 1016.7 |
| 20260905101803 | 23 | 0 | 0.0 | 0.0 | 0.00 | 0.00 | 0.00 | 95 | 1016.7 |
| 20260905100903 | 23 | 0 | 0.0 | 0.0 | 0.00 | 0.00 | 0.00 | 95 | 1016.6 |
| 20260905100003 | 23 | 0 | 0.0 | 0.0 | 0.00 | 0.00 | 0.00 | 95 | 1016.5 |
| 20260905095403 | 23 | 0 | 0.0 | 0.0 | 0.00 | 0.00 | 0.00 | 95 | 1016.3 |
| 20260905094503 | 23 | 0 | 0.0 | 0.0 | 0.00 | 0.00 | 0.00 | 95 | 1016.3 |
| 20260905093603 | 23 | 0 | 0.0 | 0.0 | 0.00 | 0.00 | 0.00 | 95 | 1016.3 |
| 20260905092703 | 23 | 0 | 0.0 | 0.0 | 0.00 | 0.00 | 0.00 | 95 | 1016.3 |
| 20260905091803 | 23 | 0 | 0.0 | 0.0 | 0.00 | 0.00 | 0.00 | 95 | 1016.2 |
| 20260905090903 | 23 | 0 | 0.0 | 0.0 | 0.00 | 0.00 | 0.00 | 94 | 1016.1 |
| 20260905090003 | 23 | 0 | 0.0 | 0.0 | 0.00 | 0.00 | 0.00 | 95 | 1016.1 |
| 20260905085403 | 23 | 0 | 0.0 | 0.0 | 0.00 | 0.00 | 0.00 | 95 | 1016.1 |
| 20260905084503 | 23 | 0 | 0.0 | 0.0 | 0.00 | 0.00 | 0.00 | 94 | 1016.1 |
| 20260905083603 | 23 | 0 | 0.0 | 0.0 | 0.00 | 0.00 | 0.00 | 94 | 1016.1 |
| 20260905082703 | 23 | 0 | 0.0 | 0.0 | 0.00 | 0.00 | 0.00 | 94 | 1016.2 |
| 20260905081804 | 23 | 0 | 0.0 | 0.0 | 0.00 | 0.00 | 0.00 | 94 | 1016.2 |
| 20260905080903 | 23 | 0 | 0.0 | 0.0 | 0.00 | 0.00 | 0.00 | 94 | 1016.2 |
| 20260905080003 | 23 | 0 | 0.0 | 0.0 | 0.00 | 0.00 | 0.00 | 94 | 1016.2 |
| 20260905075403 | 23 | 0 | 0.0 | 0.0 | 0.00 | 0.00 | 0.00 | 94 | 1016.2 |
| 20260905074503 | 24 | 0 | 0.0 | 0.0 | 0.00 | 0.00 | 0.00 | 93 | 1016.2 |
| 20260905073603 | 24 | 0 | 0.0 | 0.0 | 0.00 | 0.00 | 0.00 | 93 | 1016.3 |
| 20260905072703 | 24 | 0 | 0.0 | 0.0 | 0.00 | 0.00 | 0.00 | 93 | 1016.4 |
| 20260905071803 | 24 | 0 | 0.0 | 0.0 | 0.00 | 0.00 | 0.00 | 93 | 1016.5 |
| 20260905070903 | 24 | 0 | 0.0 | 0.0 | 0.00 | 0.00 | 0.00 | 93 | 1016.6 |
| 20260905070003 | 24 | 0 | 0.0 | 0.0 | 0.00 | 0.00 | 0.00 | 92 | 1016.7 |
| 20260905065403 | 24 | 0 | 0.0 | 0.0 | 0.00 | 0.00 | 0.00 | 92 | 1016.7 |
| 20260905064503 | 24 | 0 | 0.0 | 0.0 | 0.00 | 0.00 | 0.00 | 93 | 1016.7 |
| 20260905063603 | 24 | 0 | 0.0 | 0.0 | 0.00 | 0.00 | 0.00 | 93 | 1016.8 |
| 20260905062703 | 24 | 193 | 0.0 | 4.8 | 0.00 | 0.00 | 0.00 | 93 | 1016.9 |
| 20260905061803 | 24 | 194 | 1.6 | 6.4 | 0.00 | 0.00 | 0.00 | 94 | 1016.9 |
| 20260905060903 | 24 | 0 | 0.0 | 0.0 | 0.00 | 0.00 | 0.00 | 95 | 1017.0 |
| 20260905060003 | 24 | 0 | 0.0 | 0.0 | 0.00 | 0.00 | 0.00 | 94 | 1017.1 |
| 20260905055403 | 24 | 0 | 0.0 | 0.0 | 0.00 | 0.00 | 0.00 | 94 | 1017.1 |
| 20260905054503 | 25 | 0 | 0.0 | 0.0 | 0.00 | 0.00 | 0.00 | 94 | 1017.2 |
| 20260905053603 | 25 | 0 | 0.0 | 0.0 | 0.00 | 0.00 | 0.00 | 93 | 1017.2 |
| 20260905052703 | 25 | 0 | 0.0 | 0.0 | 0.00 | 0.00 | 0.00 | 92 | 1017.1 |
| 20260905051803 | 25 | 0 | 0.0 | 0.0 | 0.00 | 0.00 | 0.00 | 92 | 1017.1 |
| 20260905050903 | 25 | 0 | 0.0 | 0.0 | 0.00 | 0.00 | 0.00 | 93 | 1017.1 |
| 20260905050004 | 25 | 0 | 0.0 | 0.0 | 0.00 | 0.00 | 0.00 | 93 | 1017.1 |
| 20260905045403 | 25 | 0 | 0.0 | 0.0 | 0.00 | 0.00 | 0.00 | 93 | 1017.1 |
| 20260905044503 | 25 | 0 | 0.0 | 0.0 | 0.00 | 0.00 | 0.00 | 94 | 1017.1 |
| 20260905043603 | 25 | 0 | 0.0 | 0.0 | 0.00 | 0.00 | 0.00 | 93 | 1017.1 |
| 20260905042703 | 25 | 0 | 0.0 | 0.0 | 0.00 | 0.00 | 0.00 | 93 | 1017.1 |
| 20260905041803 | 25 | 0 | 0.0 | 0.0 | 0.00 | 0.00 | 0.00 | 92 | 1017.1 |
| 20260905040903 | 25 | 0 | 0.0 | 0.0 | 0.00 | 0.00 | 0.00 | 92 | 1017.1 |
| 20260905040003 | 26 | 0 | 0.0 | 0.0 | 0.00 | 0.00 | 0.00 | 92 | 1017.2 |
| 20260905035403 | 26 | 0 | 0.0 | 0.0 | 0.00 | 0.00 | 0.00 | 91 | 1017.2 |
| 20260905034503 | 26 | 0 | 0.0 | 0.0 | 0.00 | 0.00 | 0.00 | 92 | 1017.2 |
| 20260905033603 | 26 | 0 | 0.0 | 0.0 | 0.00 | 0.00 | 0.00 | 90 | 1017.3 |
| 20260905032703 | 26 | 0 | 0.0 | 0.0 | 0.00 | 0.00 | 0.00 | 90 | 1017.3 |
| 20260905031803 | 26 | 0 | 0.0 | 0.0 | 0.00 | 0.00 | 0.00 | 90 | 1017.3 |
| 20260905030903 | 26 | 0 | 0.0 | 0.0 | 0.00 | 0.00 | 0.00 | 89 | 1017.4 |
| 20260905030003 | 26 | 0 | 0.0 | 0.0 | 0.00 | 0.00 | 0.00 | 88 | 1017.4 |
| 20260905025403 | 26 | 0 | 0.0 | 0.0 | 0.00 | 0.00 | 0.00 | 85 | 1017.4 |
| 20260905024503 | 26 | 208 | 1.6 | 3.2 | 0.00 | 0.00 | 0.00 | 86 | 1017.4 |
| 20260905023603 | 27 | 208 | 3.2 | 3.2 | 0.00 | 0.00 | 0.00 | 86 | 1017.4 |
| 20260905022703 | 27 | 208 | 1.6 | 4.8 | 0.00 | 0.00 | 0.00 | 85 | 1017.2 |
| 20260905021803 | 27 | 0 | 0.0 | 0.0 | 0.00 | 0.00 | 0.00 | 83 | 1017.3 |
| 20260905020903 | 27 | 0 | 0.0 | 0.0 | 0.00 | 0.00 | 0.00 | 83 | 1017.1 |
| 20260905020003 | 27 | 0 | 0.0 | 0.0 | 0.00 | 0.00 | 0.00 | 83 | 1017.1 |
| 20260905015403 | 28 | 0 | 0.0 | 0.0 | 0.00 | 0.00 | 0.00 | 81 | 1017.1 |
| 20260905014503 | 28 | 0 | 0.0 | 0.0 | 0.00 | 0.00 | 0.00 | 81 | 1017.0 |
| 20260905013603 | 28 | 0 | 0.0 | 0.0 | 0.00 | 0.00 | 0.00 | 80 | 1016.9 |
| 20260905012703 | 28 | 0 | 0.0 | 0.0 | 0.00 | 0.00 | 0.00 | 79 | 1016.6 |
| 20260905011803 | 28 | 0 | 0.0 | 0.0 | 0.00 | 0.00 | 0.00 | 78 | 1016.7 |
| 20260905010903 | 29 | 225 | 1.6 | 3.2 | 0.00 | 0.00 | 0.00 | 77 | 1016.6 |
| 20260905010003 | 30 | 233 | 0.0 | 4.8 | 0.00 | 0.00 | 0.00 | 75 | 1016.6 |
| 20260905005403 | 30 | 0 | 0.0 | 0.0 | 0.00 | 0.00 | 0.00 | 73 | 1016.6 |
| 20260905004503 | 30 | 0 | 0.0 | 0.0 | 0.00 | 0.00 | 0.00 | 74 | 1016.7 |
| 20260905003603 | 30 | 0 | 0.0 | 0.0 | 0.00 | 0.00 | 0.00 | 73 | 1016.6 |
| 20260905002703 | 30 | 0 | 0.0 | 0.0 | 0.00 | 0.00 | 0.00 | 72 | 1016.7 |
| 20260905001803 | 31 | 0 | 0.0 | 0.0 | 0.00 | 0.00 | 0.00 | 71 | 1016.7 |
| 20260905000903 | 31 | 0 | 0.0 | 0.0 | 0.00 | 0.00 | 0.00 | 70 | 1016.6 |
| 20260905000003 | 31 | 0 | 0.0 | 0.0 | 0.00 | 0.00 | 0.00 | 69 | 1016.7 |
| 20260904235403 | 31 | 0 | 0.0 | 0.0 | 0.00 | 0.00 | 0.00 | 69 | 1016.7 |
| 20260904234503 | 32 | 0 | 0.0 | 0.0 | 0.00 | 0.00 | 0.00 | 67 | 1016.7 |
| 20260904233603 | 32 | 0 | 0.0 | 0.0 | 0.00 | 0.00 | 0.00 | 67 | 1016.6 |
| 20260904232703 | 32 | 343 | 0.0 | 3.2 | 0.00 | 0.00 | 0.00 | 66 | 1016.6 |
| 20260904231803 | 33 | 346 | 0.0 | 1.6 | 0.00 | 0.00 | 0.00 | 64 | 1016.6 |
| 20260904230903 | 33 | 355 | 0.0 | 4.8 | 0.00 | 0.00 | 0.00 | 63 | 1016.5 |
| 20260904230003 | 33 | 0 | 0.0 | 0.0 | 0.00 | 0.00 | 0.00 | 61 | 1016.4 |
| 20260904225403 | 33 | 0 | 0.0 | 0.0 | 0.00 | 0.00 | 0.00 | 62 | 1016.5 |